This is the latest recevied weather packets stored in our database for station/object OE-11204. If no packets are shown the sender has not sent any weather packets the latest 10 day(s).
| Time | Temp. | Humidity | Pressure | Rain* | Wind** | Luminosity | Snow |
|---|---|---|---|---|---|---|---|
| 1787644515 | 15.56° C | 90% | 1013.7 hPa | 0.51 mm | - | 161 W/m² | - |
| 1787643688 | 15.56° C | 90% | 1013.8 hPa | 0.51 mm | - | 136 W/m² | - |
| 1787643315 | 15.56° C | 90% | 1013.7 hPa | 0.76 mm | - | 136 W/m² | - |
| 1787642715 | 15.56° C | 92% | 1013.8 hPa | 1.02 mm | - | 93 W/m² | - |
| 1787641888 | 15.56° C | 91% | 1013.9 hPa | 1.52 mm | - | 99 W/m² | - |
| 1787641514 | 15° C | 91% | 1014 hPa | 1.78 mm | - | 80 W/m² | - |
| 1787640914 | 15° C | 91% | 1014 hPa | 2.29 mm | - | 50 W/m² | - |
| 1787640088 | 15° C | 92% | 1014 hPa | 2.54 mm | - | 50 W/m² | - |
| 1787639714 | 15° C | 93% | 1014 hPa | 2.79 mm | - | 37 W/m² | - |
| 1787639115 | 15° C | 93% | 1014 hPa | 2.79 mm | - | 25 W/m² | - |
| 1787638287 | 15° C | 94% | 1014.1 hPa | 2.54 mm | - | 12 W/m² | - |
| 1787637915 | 15° C | 94% | 1014.3 hPa | 2.29 mm | - | 6 W/m² | - |
| 1787637315 | 15° C | 93% | 1014.4 hPa | 2.03 mm | - | 6 W/m² | - |
| 1787636487 | 15° C | 93% | 1014.5 hPa | 1.78 mm | - | 6 W/m² | - |
| 1787636114 | 15° C | 93% | 1014.4 hPa | 1.52 mm | - | 0 W/m² | - |
| 1787635514 | 15° C | 93% | 1014.3 hPa | 1.27 mm | - | 6 W/m² | - |
| 1787634688 | 15° C | 90% | 1014.2 hPa | 1.02 mm | - | 0 W/m² | - |
| 1787634315 | 15° C | 90% | 1014.1 hPa | 0.76 mm | - | 0 W/m² | - |
| 1787633715 | 15.56° C | 90% | 1013.9 hPa | 0.51 mm | - | 0 W/m² | - |
| 1787632888 | 15.56° C | 87% | 1014 hPa | 0 mm | - | 0 W/m² | - |
| 1787632515 | 15° C | 87% | 1014 hPa | 0 mm | - | 0 W/m² | - |
| 1787631915 | 15° C | 88% | 1014 hPa | 0 mm | - | 0 W/m² | - |
| 1787631088 | 15° C | 88% | 1014 hPa | 0 mm | - | 0 W/m² | - |
| 1787630715 | 15° C | 88% | 1014.2 hPa | 0 mm | - | 0 W/m² | - |
| 1787630115 | 14.44° C | 90% | 1014.3 hPa | 0 mm | - | 0 W/m² | - |
* Rain latest hour (hover to see other rain measurements)
** Current wind speed in m/s (hover to see current wind gust speed)